Home   Weather   Opole   Past weeks

Flag for Poland Past Weather in Opole, Poland — Yesterday and Last 2 Weeks

Now
25 °F

Ice fog.


Feels Like: 15 °F
Forecast: 17 / 31 °F
Wind: 9 mph from Southeast

Location: Wroclaw Ii

Current Time: Jan 22, 2017 at 1:08:55 am

Latest Report: Jan 22, 2017 at 12:30 am


Visibility: 0 mi

Pressure: 30.51 "Hg

Humidity: 100%

Dew Point: 25 °F

Location of OpoleLocation

Past Weather in Opole — Graph

°F

Opole Temperature Yesterday

Maximum temperature yesterday: 36 °F (at 12:00 pm)
Minimum temperature yesterday: 23 °F (at 8:30 pm)
Average temperature yesterday: 30 °F

High & Low Weather Summary for the Past Weeks

 TemperatureHumidityPressure
High43 °F (Jan 13, 11:30 am)100% (Jan 11, 9:30 pm)30.74 "Hg (Jan 11, 9:30 pm)
Low1 °F (Jan 7, 5:30 am)44% (Jan 11, 1:00 pm)29.24 "Hg (Jan 13, 6:30 am)
Average26 °F82%30.19 "Hg
* Reported Jan 7 12:00 am — Jan 22 12:00 am, Opole, Weather by CustomWeather, © 2017

Note: Actual official high and low records may vary slightly from our data, if they occured in-between our weather recording intervals... More about our weather records

Advertising

Opole Weather History for the Previous 24 Hours

Scroll right to see more
 ConditionsComfort  
Time TempWeatherWind HumidityBarometerVisibility
12:00 am
Sun, Jan 22
23 °FIce fog.8 mph93%30.51 "Hg1 mi
11:30 pm
Sat, Jan 21
23 °FIce fog.6 mph100%30.51 "Hg1 mi
11:00 pm23 °FIce fog.8 mph100%30.51 "Hg1 mi
10:30 pm25 °FIce fog.7 mph93%30.51 "Hg1 mi
10:00 pm25 °FCold.5 mph93%30.51 "Hg1 mi
9:30 pm25 °FIce fog.5 mph93%30.51 "Hg1 mi
9:00 pm25 °FIce fog.3 mph100%30.51 "Hg1 mi
8:30 pm23 °FIce fog.2 mph100%30.51 "Hg1 mi
8:00 pm25 °FIce fog.2 mph100%30.51 "Hg1 mi
7:30 pm25 °FIce fog.1 mph93%30.51 "Hg2 mi
7:00 pm27 °FFog.1 mph93%30.51 "HgN/A
6:30 pm27 °FFog.1 mph93%30.51 "HgN/A
6:00 pm27 °FPassing clouds.2 mph93%30.51 "HgN/A
5:30 pm27 °FPassing clouds.1 mph93%30.48 "HgN/A
5:00 pm32 °FPassing clouds.2 mph80%30.48 "HgN/A
4:30 pm32 °FPassing clouds.1 mph80%30.48 "HgN/A
4:00 pm34 °FPassing clouds.3 mph75%30.48 "HgN/A
3:30 pm36 °FPassing clouds.2 mph75%30.48 "HgN/A
3:00 pm36 °FPassing clouds.3 mph75%30.48 "HgN/A
2:30 pm36 °FPassing clouds.6 mph75%30.48 "HgN/A
2:00 pm34 °FPassing clouds.5 mph81%30.48 "HgN/A
1:30 pm36 °FScattered clouds.6 mph75%30.51 "HgN/A
1:00 pm34 °FPartly sunny.8 mph81%30.51 "HgN/A
12:30 pm36 °FPassing clouds.8 mph75%30.51 "HgN/A
12:00 pm36 °FPassing clouds.8 mph70%30.51 "HgN/A
11:30 am34 °FPassing clouds.8 mph75%30.51 "HgN/A
11:00 am32 °FScattered clouds.8 mph80%30.51 "HgN/A
10:30 am32 °FPartly sunny.6 mph80%30.54 "HgN/A
10:00 am32 °FLight snow. Broken clouds.6 mph80%30.54 "HgN/A
9:30 am32 °FPartly sunny.5 mph80%30.54 "HgN/A
9:00 am30 °FPartly sunny.5 mph86%30.51 "HgN/A
8:30 am30 °FLight freezing rain. Partly sunny.7 mph86%30.51 "Hg5 mi
8:00 am30 °FLight freezing rain. Partly sunny.6 mph93%30.51 "Hg4 mi
7:30 am30 °FLow clouds.5 mph93%30.51 "HgN/A
7:00 am30 °FLow clouds.3 mph93%30.51 "HgN/A
6:30 am30 °FLow clouds.3 mph86%30.48 "HgN/A
6:00 am30 °FLow clouds.3 mph86%30.48 "HgN/A
5:30 am30 °FLow clouds.6 mph86%30.48 "HgN/A
5:00 am30 °FLow clouds.6 mph80%30.48 "HgN/A
4:30 am30 °FOvercast.7 mph80%30.48 "HgN/A
4:00 am32 °FOvercast.8 mph69%30.48 "HgN/A
3:30 am30 °FOvercast.8 mph80%30.48 "HgN/A
3:00 am32 °FOvercast.6 mph75%30.51 "HgN/A
2:30 am32 °FOvercast.7 mph80%30.51 "HgN/A
2:00 am32 °FPassing clouds.6 mph80%30.51 "HgN/A
1:30 am32 °FPassing clouds.6 mph75%30.51 "HgN/A
1:00 am30 °FPassing clouds.7 mph80%30.51 "HgN/A
Weather by CustomWeather, © 2017

See weather overviewHow to use our weather pages